FW8345 Weather Reports


Display with metric or nautical units.
time (UTC)temp
F
wind
direction
speed
MPH
gust
MPH
rain 1hr
in
rain 24hr
in
rain mn
in
humidity
%
barometer
mb
20210803104702 64 112 2.0 7.0 0.00 0.00 0.00 76 1013.2
20210803104041 65 90 3.0 7.0 0.00 0.00 0.00 74 1013.2
20210803103537 66 109 3.0 7.0 0.00 0.00 0.00 74 1013.2
20210803103105 65 115 3.0 7.0 0.00 0.00 0.00 76 1013.2
20210803102537 65 113 2.0 7.0 0.00 0.00 0.00 77 1013.3
20210803102105 66 113 2.0 7.0 0.00 0.00 0.00 75 1013.4
20210803101656 65 123 2.0 7.0 0.00 0.00 0.00 76 1013.4
20210803101042 67 136 4.0 7.0 0.00 0.00 0.00 75 1013.4
20210803100537 65 139 3.0 8.0 0.00 0.00 0.00 80 1013.5
20210803100101 66 71 3.0 8.0 0.00 0.00 0.00 76 1013.4
20210803095537 66 72 3.0 7.0 0.00 0.00 0.00 75 1013.5
20210803095038 66 140 1.0 7.0 0.00 0.00 0.00 78 1013.5
20210803094705 66 130 3.0 8.0 0.00 0.00 0.00 78 1013.6
20210803094037 65 114 3.0 8.0 0.00 0.00 0.00 77 1013.5
20210803093537 65 181 2.0 7.0 0.00 0.00 0.00 74 1013.5
20210803093241 64 20 2.0 6.0 0.00 0.00 0.00 79 1013.6
20210803092536 64 0 3.0 6.0 0.00 0.00 0.00 80 1013.6
20210803092043 64 65 3.0 6.0 0.00 0.00 0.00 79 1013.5
20210803091554 64 95 2.0 6.0 0.00 0.00 0.00 78 1013.7
20210803091041 65 61 3.0 6.0 0.00 0.00 0.00 77 1013.7
20210803090537 64 0 3.0 6.0 0.00 0.00 0.00 77 1013.7
20210803090100 64 47 2.0 4.0 0.00 0.00 0.00 75 1013.7
20210803085537 64 117 2.0 4.0 0.00 0.00 0.00 78 1013.6
20210803085037 64 109 2.0 6.0 0.00 0.00 0.00 77 1013.8
20210803084609 63 96 3.0 6.0 0.00 0.00 0.00 77 1013.8
20210803084037 63 130 2.0 7.0 0.00 0.00 0.00 77 1013.8
20210803083543 63 97 3.0 7.0 0.00 0.00 0.00 78 1013.7
20210803083140 62 111 3.0 7.0 0.00 0.00 0.00 77 1013.8
20210803082536 62 29 3.0 6.0 0.00 0.00 0.00 78 1013.8
20210803082102 62 40 3.0 5.0 0.00 0.00 0.00 77 1013.8
20210803081721 62 19 2.0 5.0 0.00 0.00 0.00 77 1013.8
20210803081036 62 0 2.0 6.0 0.00 0.00 0.00 76 1013.8
20210803080545 63 64 4.0 7.0 0.00 0.00 0.00 77 1013.8
20210803080219 63 129 3.0 7.0 0.00 0.00 0.00 77 1013.8
20210803075539 63 106 2.0 6.0 0.00 0.00 0.00 77 1013.8
20210803075044 62 113 2.0 4.0 0.00 0.00 0.00 76 1013.8
20210803074719 62 57 2.0 4.0 0.00 0.00 0.00 78 1013.9
20210803074052 62 44 2.0 5.0 0.00 0.00 0.00 77 1013.8
20210803073536 61 97 2.0 5.0 0.00 0.00 0.00 81 1013.8
20210803073149 61 78 1.0 4.0 0.00 0.00 0.00 79 1013.8
20210803072544 60 84 1.0 4.0 0.00 0.00 0.00 80 1013.6
20210803072036 60 107 2.0 4.0 0.00 0.00 0.00 80 1013.7
20210803071620 59 77 2.0 4.0 0.00 0.00 0.00 81 1013.6
20210803071037 59 45 1.0 4.0 0.00 0.00 0.00 81 1013.6
20210803070540 58 51 2.0 4.0 0.00 0.00 0.00 82 1013.6
20210803070148 58 49 1.0 4.0 0.00 0.00 0.00 82 1013.7
20210803065537 57 5 1.0 3.0 0.00 0.00 0.00 84 1013.7
20210803065040 57 78 2.0 4.0 0.00 0.00 0.00 84 1013.7
20210803064556 56 72 1.0 4.0 0.00 0.00 0.00 86 1013.7
20210803064038 55 67 1.0 3.0 0.00 0.00 0.00 87 1013.6
20210803063539 54 305 0.0 3.0 0.00 0.00 0.00 86 1013.6
20210803063203 53 305 1.0 4.0 0.00 0.00 0.00 87 1013.7
20210803062545 53 296 2.0 4.0 0.00 0.00 0.00 87 1013.6
20210803062055 53 313 2.0 4.0 0.00 0.00 0.00 89 1013.6
20210803061650 52 315 2.0 5.0 0.00 0.00 0.00 89 1013.6
20210803061046 52 329 3.0 5.0 0.00 0.00 0.00 91 1013.6
20210803060552 51 305 3.0 4.0 0.00 0.00 0.00 91 1013.5
20210803060050 51 312 2.0 4.0 0.00 0.00 0.00 91 1013.5
20210803055550 50 295 2.0 4.0 0.00 0.00 0.00 93 1013.5
20210803055037 50 297 2.0 6.0 0.00 0.00 0.00 92 1013.5
20210803054731 50 294 2.0 6.0 0.00 0.00 0.00 93 1013.4
20210803054041 49 290 3.0 6.0 0.00 0.00 0.00 93 1013.4
20210803053536 49 308 4.0 6.0 0.00 0.00 0.00 93 1013.4
20210803053140 49 290 4.0 6.0 0.00 0.00 0.00 93 1013.4
20210803052540 49 296 4.0 6.0 0.00 0.00 0.00 93 1013.4
20210803052057 48 283 3.0 5.0 0.00 0.00 0.00 93 1013.4
20210803051640 48 317 3.0 6.0 0.00 0.00 0.00 93 1013.3
20210803051036 48 315 4.0 6.0 0.00 0.00 0.00 93 1013.3
20210803050549 48 310 3.0 7.0 0.00 0.00 0.00 93 1013.3
20210803050322 48 299 3.0 7.0 0.00 0.00 0.00 93 1013.3
20210803045536 48 280 4.0 6.0 0.00 0.00 0.00 93 1013.3
20210803045051 48 287 4.0 6.0 0.00 0.00 0.00 93 1013.4
20210803044645 48 298 4.0 7.0 0.00 0.00 0.00 92 1013.3
20210803044035 48 297 4.0 7.0 0.00 0.00 0.00 92 1013.2
20210803043536 48 280 4.0 7.0 0.00 0.00 0.00 92 1013.3
20210803043116 48 303 4.0 7.0 0.00 0.00 0.00 93 1013.3
20210803042534 48 316 4.0 7.0 0.00 0.00 0.00 93 1013.3
20210803042043 48 279 3.0 9.0 0.00 0.00 0.00 93 1013.2
20210803041658 48 275 5.0 9.0 0.00 0.00 0.00 93 1013.3
20210803041034 48 283 6.0 9.0 0.00 0.00 0.00 93 1013.3
20210803040535 48 290 5.0 8.0 0.00 0.00 0.00 92 1013.3
20210803040236 49 276 4.0 8.0 0.00 0.00 0.00 92 1013.3
20210803035535 49 289 4.0 7.0 0.00 0.00 0.00 92 1013.4
20210803035042 49 283 4.0 7.0 0.00 0.00 0.00 92 1013.4
20210803034606 49 258 4.0 8.0 0.00 0.00 0.00 92 1013.3
20210803034040 49 294 4.0 8.0 0.00 0.00 0.00 93 1013.1
20210803033537 49 290 5.0 8.0 0.00 0.00 0.00 93 1013.2
20210803033143 49 285 5.0 8.0 0.00 0.00 0.00 93 1013.2
20210803032541 49 296 5.0 8.0 0.00 0.00 0.00 93 1013.4
20210803032034 49 306 3.0 7.0 0.00 0.00 0.00 93 1013.5
20210803031631 49 291 5.0 8.0 0.00 0.00 0.00 93 1013.4
20210803031110 49 296 5.0 8.0 0.00 0.00 0.00 93 1013.5
20210803030536 49 292 3.0 7.0 0.00 0.00 0.00 93 1013.6
20210803030222 49 292 3.0 6.0 0.00 0.00 0.00 93 1013.5
20210803025544 49 291 3.0 6.0 0.00 0.00 0.00 93 1013.6
20210803025039 49 306 4.0 6.0 0.00 0.00 0.00 93 1013.6
20210803024653 49 290 3.0 6.0 0.00 0.00 0.00 93 1013.6
20210803024042 48 284 2.0 4.0 0.00 0.00 0.00 92 1013.6
20210803023534 49 286 1.0 3.0 0.00 0.00 0.00 92 1013.6
20210803023148 49 0 0.0 2.0 0.00 0.00 0.00 92 1013.6
20210803022538 49 280 1.0 3.0 0.00 0.00 0.00 92 1013.6
20210803022034 49 279 1.0 6.0 0.00 0.00 0.00 92 1013.6
20210803021631 49 279 2.0 6.0 0.00 0.00 0.00 92 1013.6
20210803021036 49 275 3.0 6.0 0.00 0.00 0.00 92 1013.7
20210803020541 49 289 3.0 6.0 0.00 0.00 0.00 92 1013.6
20210803020156 49 272 2.0 6.0 0.00 0.00 0.00 92 1013.6
20210803015543 49 265 2.0 4.0 0.00 0.00 0.00 92 1013.6
20210803015035 49 267 1.0 3.0 0.00 0.00 0.00 92 1013.6
20210803014615 49 279 1.0 3.0 0.00 0.00 0.00 91 1013.6
20210803014046 49 273 0.0 3.0 0.00 0.00 0.00 91 1013.5
20210803013538 50 271 0.0 4.0 0.00 0.00 0.00 91 1013.6
20210803013119 50 0 2.0 4.0 0.00 0.00 0.00 91 1013.6
20210803012543 50 281 1.0 3.0 0.00 0.00 0.00 91 1013.6
20210803012046 50 282 0.0 2.0 0.00 0.00 0.00 91 1013.6
20210803011621 51 0 0.0 3.0 0.00 0.00 0.00 92 1013.6
20210803011042 51 0 0.0 4.0 0.00 0.00 0.00 92 1013.5
20210803010546 51 282 1.0 4.0 0.00 0.00 0.00 91 1013.6
20210803010256 51 289 2.0 4.0 0.00 0.00 0.00 91 1013.7
20210803005535 51 273 2.0 4.0 0.00 0.00 0.00 91 1013.6
20210803005036 51 298 2.0 4.0 0.00 0.00 0.00 91 1013.6
20210803004629 51 0 0.0 2.0 0.00 0.00 0.00 91 1013.7
20210803004043 51 307 1.0 2.0 0.00 0.00 0.00 91 1013.7
20210803003535 51 352 0.0 2.0 0.00 0.00 0.00 90 1013.6
20210803003258 51 0 0.0 1.0 0.00 0.00 0.00 90 1013.7
20210803002535 52 352 0.0 2.0 0.00 0.00 0.00 90 1013.7
20210803002038 52 0 1.0 2.0 0.00 0.00 0.00 90 1013.8
20210803001705 52 352 0.0 2.0 0.00 0.00 0.00 90 1013.8
20210803001033 52 0 0.0 1.0 0.00 0.00 0.00 90 1013.8
20210803000547 52 0 0.0 1.0 0.00 0.00 0.00 90 1013.8
20210803000112 52 0 0.0 1.0 0.00 0.00 0.00 90 1013.8
20210802235553 53 0 0.0 2.0 0.00 0.00 0.00 90 1013.7
20210802235036 53 0 0.0 4.0 0.00 0.00 0.00 90 1013.7
20210802234718 53 352 1.0 4.0 0.00 0.00 0.00 90 1013.8
20210802234035 53 0 0.0 4.0 0.00 0.00 0.00 90 1013.7
20210802233547 53 0 1.0 4.0 0.00 0.00 0.00 90 1013.9
20210802233125 54 346 1.0 4.0 0.00 0.00 0.00 89 1013.9
20210802232541 54 343 1.0 8.0 0.00 0.00 0.00 90 1014.0
20210802232036 54 305 4.0 8.0 0.00 0.00 0.00 90 1014.0
20210802231739 54 306 4.0 8.0 0.00 0.00 0.00 90 1014.1
20210802231034 54 322 3.0 6.0 0.00 0.00 0.00 89 1014.0
20210802230538 54 288 3.0 6.0 0.00 0.00 0.00 88 1014.1
20210802230125 54 275 3.0 6.0 0.00 0.00 0.00 88 1014.1
20210802225535 55 298 2.0 4.0 0.00 0.00 0.00 88 1014.1
20210802225037 55 291 2.0 6.0 0.00 0.00 0.00 88 1014.1
20210802224701 55 289 2.0 6.0 0.00 0.00 0.00 87 1014.2
20210802224036 55 300 2.0 6.0 0.00 0.00 0.00 87 1014.2
20210802223538 55 291 3.0 7.0 0.00 0.00 0.00 87 1014.2
20210802223121 56 295 3.0 7.0 0.00 0.00 0.00 87 1014.2
20210802222537 56 277 3.0 7.0 0.00 0.00 0.00 86 1014.1
20210802222045 56 272 2.0 3.0 0.00 0.00 0.00 86 1014.1
20210802221616 56 284 1.0 3.0 0.00 0.00 0.00 86 1014.2
20210802221037 56 278 1.0 3.0 0.00 0.00 0.00 86 1014.2
20210802220540 56 283 0.0 3.0 0.00 0.00 0.00 86 1014.2
20210802220124 56 0 0.0 4.0 0.00 0.00 0.00 85 1014.3
20210802215537 56 282 1.0 8.0 0.00 0.00 0.00 86 1014.2
20210802215041 56 284 4.0 8.0 0.00 0.00 0.00 86 1014.3
20210802214654 56 271 3.0 8.0 0.00 0.00 0.00 87 1014.3
20210802214042 56 282 3.0 11.0 0.00 0.00 0.00 88 1014.2
20210802213547 56 288 3.0 11.0 0.00 0.00 0.00 88 1014.2
20210802213214 56 247 2.0 4.0 0.00 0.00 0.00 88 1014.2
20210802212534 56 282 0.0 3.0 0.00 0.00 0.00 88 1014.2
20210802212040 56 226 0.0 3.0 0.00 0.00 0.00 88 1014.3
20210802211626 56 259 0.0 2.0 0.00 0.00 0.00 87 1014.2
20210802211034 56 247 0.0 2.0 0.00 0.00 0.00 87 1014.2
20210802210540 56 247 1.0 2.0 0.00 0.00 0.00 87 1014.2
20210802210115 56 0 0.0 1.0 0.00 0.00 0.00 87 1014.2
20210802205544 56 182 0.0 1.0 0.00 0.00 0.00 87 1014.2
20210802205056 56 0 0.0 2.0 0.00 0.00 0.00 87 1014.2
20210802204741 56 0 0.0 4.0 0.00 0.00 0.00 87 1014.2
20210802204035 56 0 1.0 4.0 0.00 0.00 0.00 87 1014.1
20210802203536 56 175 2.0 4.0 0.00 0.00 0.00 88 1014.1
20210802203115 56 171 2.0 5.0 0.00 0.00 0.00 88 1014.0
20210802202534 56 175 2.0 5.0 0.00 0.00 0.00 88 1014.1
20210802202038 56 166 1.0 5.0 0.00 0.00 0.00 88 1014.0
20210802201615 57 173 2.0 5.0 0.00 0.00 0.00 88 1013.9
20210802201040 57 161 2.0 7.0 0.00 0.00 0.00 87 1013.8
20210802200539 57 175 3.0 7.0 0.00 0.00 0.00 87 1013.9
20210802200150 57 141 4.0 7.0 0.00 0.00 0.00 87 1013.8
20210802195540 57 148 3.0 7.0 0.00 0.00 0.00 86 1013.8
20210802195052 58 147 3.0 7.0 0.00 0.00 0.00 86 1013.8
20210802194641 58 138 3.0 4.0 0.00 0.00 0.00 86 1013.8
20210802194044 58 159 2.0 4.0 0.00 0.00 0.00 86 1013.8
20210802193539 58 173 1.0 3.0 0.00 0.00 0.00 85 1013.9
20210802193221 58 173 1.0 3.0 0.00 0.00 0.00 85 1013.8
20210802192541 59 173 1.0 3.0 0.00 0.00 0.00 84 1013.8
20210802192109 58 173 0.0 2.0 0.00 0.00 0.00 82 1013.8
20210802191700 58 173 0.0 2.0 0.00 0.00 0.00 81 1013.8
20210802191037 59 173 0.0 2.0 0.00 0.00 0.00 81 1013.8
20210802190602 59 0 0.0 4.0 0.00 0.00 0.00 80 1013.8
20210802190127 59 0 0.0 5.0 0.00 0.00 0.00 80 1013.9
20210802185612 59 169 2.0 6.0 0.00 0.00 0.00 81 1013.9
20210802185037 59 172 2.0 6.0 0.00 0.00 0.00 81 1013.8
20210802184609 59 173 2.0 5.0 0.00 0.00 0.00 81 1013.8
20210802184037 59 167 3.0 5.0 0.00 0.00 0.00 81 1013.7
20210802183538 59 171 2.0 8.0 0.00 0.00 0.00 80 1013.8
20210802183206 59 171 3.0 8.0 0.00 0.00 0.00 82 1013.8
20210802182542 59 165 4.0 9.0 0.00 0.00 0.00 81 1013.7
20210802182037 59 155 5.0 10.0 0.00 0.00 0.00 80 1013.7
20210802181803 60 172 7.0 10.0 0.00 0.00 0.00 79 1013.7
20210802181037 60 148 4.0 9.0 0.00 0.00 0.00 79 1013.7
20210802180536 61 154 4.0 9.0 0.00 0.00 0.00 78 1013.6
20210802180120 62 155 5.0 9.0 0.00 0.00 0.00 77 1013.7
20210802175545 62 148 6.0 9.0 0.00 0.00 0.00 76 1013.6
20210802175037 63 140 1.0 3.0 0.00 0.00 0.00 73 1013.6
20210802174708 63 140 0.0 2.0 0.00 0.00 0.00 73 1013.5
20210802174100 63 0 0.0 2.0 0.00 0.00 0.00 73 1013.5
20210802173538 63 0 0.0 2.0 0.00 0.00 0.00 72 1013.6
20210802173119 63 140 1.0 3.0 0.00 0.00 0.00 75 1013.6
20210802172540 64 144 2.0 3.0 0.00 0.00 0.00 75 1013.6
20210802172044 64 144 1.0 2.0 0.00 0.00 0.00 73 1013.6
20210802171714 64 0 0.0 4.0 0.00 0.00 0.00 72 1013.6
20210802171051 64 144 2.0 4.0 0.00 0.00 0.00 75 1013.6
20210802170535 65 143 1.0 3.0 0.00 0.00 0.00 74 1013.6
20210802170202 65 0 0.0 2.0 0.00 0.00 0.00 70 1013.7
20210802165541 65 119 0.0 3.0 0.00 0.00 0.00 72 1013.7
20210802165039 65 119 0.0 3.0 0.00 0.00 0.00 70 1013.8
20210802164625 65 105 1.0 2.0 0.00 0.00 0.00 72 1013.7
20210802164044 65 0 0.0 3.0 0.00 0.00 0.00 70 1013.7
20210802163538 65 136 1.0 3.0 0.00 0.00 0.00 72 1013.6
20210802163126 65 79 1.0 2.0 0.00 0.00 0.00 72 1013.7
20210802162552 65 0 0.0 2.0 0.00 0.00 0.00 68 1013.7
20210802162038 65 149 1.0 3.0 0.00 0.00 0.00 71 1013.8
20210802161657 65 119 1.0 4.0 0.00 0.00 0.00 73 1013.9
20210802161039 65 105 1.0 4.0 0.00 0.00 0.00 72 1013.8
20210802160538 65 100 1.0 3.0 0.00 0.00 0.00 72 1013.9
20210802160129 65 80 1.0 3.0 0.00 0.00 0.00 73 1013.9
20210802155606 65 99 1.0 3.0 0.00 0.00 0.00 73 1014.0
20210802155037 65 139 0.0 2.0 0.00 0.00 0.00 69 1014.0
20210802154630 65 0 0.0 3.0 0.00 0.00 0.00 70 1014.0
20210802154043 65 0 0.0 3.0 0.00 0.00 0.00 72 1014.0
20210802153547 64 13 0.0 3.0 0.00 0.00 0.00 74 1014.0
20210802153159 64 88 0.0 3.0 0.00 0.00 0.00 75 1014.0
20210802152540 64 107 1.0 3.0 0.00 0.00 0.00 75 1014.0
20210802152037 64 170 1.0 2.0 0.00 0.00 0.00 77 1014.1
20210802151622 64 170 1.0 2.0 0.00 0.00 0.00 74 1014.1
20210802151040 64 170 0.0 4.0 0.00 0.00 0.00 73 1014.1
20210802150536 64 170 1.0 4.0 0.00 0.00 0.00 76 1014.2
20210802150114 65 181 2.0 4.0 0.00 0.00 0.00 76 1014.3
20210802145538 65 0 0.0 6.0 0.00 0.00 0.00 74 1014.3
20210802145040 65 183 3.0 6.0 0.00 0.00 0.00 75 1014.3
20210802144632 65 0 0.0 6.0 0.00 0.00 0.00 75 1014.3
20210802144043 65 149 2.0 7.0 0.00 0.00 0.00 76 1014.3
20210802143600 65 309 1.0 7.0 0.00 0.00 0.00 80 1014.4
20210802143124 65 161 2.0 5.0 0.00 0.00 0.00 81 1014.3
20210802142541 64 213 0.0 5.0 0.00 0.00 0.00 80 1014.4
20210802142110 64 222 1.0 5.0 0.00 0.00 0.00 81 1014.3
20210802141644 63 146 2.0 4.0 0.00 0.00 0.00 80 1014.4
20210802141038 63 151 1.0 2.0 0.00 0.00 0.00 82 1014.4
20210802140559 63 144 0.0 3.0 0.00 0.00 0.00 82 1014.5
20210802140114 63 0 1.0 3.0 0.00 0.00 0.00 83 1014.6
20210802135538 62 144 1.0 3.0 0.00 0.00 0.00 84 1014.6
20210802135054 62 144 1.0 2.0 0.00 0.00 0.00 83 1014.6
20210802134715 62 144 0.0 3.0 0.00 0.00 0.00 83 1014.6
20210802134043 62 144 1.0 3.0 0.00 0.00 0.00 84 1014.6
20210802133538 61 144 0.0 3.0 0.00 0.00 0.00 84 1014.6
20210802133058 61 144 1.0 3.0 0.00 0.00 0.00 84 1014.6
20210802132554 61 143 1.0 3.0 0.00 0.00 0.00 85 1014.6
20210802132042 61 119 2.0 3.0 0.00 0.00 0.00 85 1014.7
20210802131628 61 0 0.0 2.0 0.00 0.00 0.00 84 1014.8
20210802131037 61 128 1.0 2.0 0.00 0.00 0.00 85 1014.9
20210802130538 61 128 0.0 1.0 0.00 0.00 0.00 82 1015.0
20210802130222 61 0 0.0 2.0 0.00 0.00 0.00 84 1014.9
20210802125537 61 128 0.0 3.0 0.00 0.00 0.00 84 1014.9
20210802125042 61 128 1.0 3.0 0.00 0.00 0.00 85 1014.7
20210802124704 61 128 1.0 3.0 0.00 0.00 0.00 84 1014.7
20210802124042 61 136 1.0 3.0 0.00 0.00 0.00 85 1014.8
20210802123538 61 0 1.0 3.0 0.00 0.00 0.00 85 1014.8
20210802123058 61 154 1.0 3.0 0.00 0.00 0.00 86 1014.9
20210802122537 61 154 2.0 4.0 0.00 0.00 0.00 84 1014.9
20210802122038 61 154 1.0 4.0 0.00 0.00 0.00 86 1015.0
20210802121653 60 157 2.0 4.0 0.00 0.00 0.00 87 1014.9
20210802121040 60 157 1.0 4.0 0.00 0.00 0.00 86 1015.0
20210802120539 60 150 2.0 4.0 0.00 0.00 0.00 87 1015.0
20210802120120 60 142 1.0 4.0 0.00 0.00 0.00 87 1015.0
20210802115538 60 142 2.0 4.0 0.00 0.00 0.00 86 1015.0
20210802115043 60 151 0.0 2.0 0.00 0.00 0.00 86 1015.0
20210802114750 60 0 0.0 2.0 0.00 0.00 0.00 86 1015.0
20210802114040 59 113 0.0 2.0 0.00 0.00 0.00 83 1015.0
20210802113539 59 73 1.0 2.0 0.00 0.00 0.00 83 1015.1
20210802113131 59 345 0.0 1.0 0.00 0.00 0.00 79 1015.0
20210802112536 59 0 0.0 0.0 0.00 0.00 0.00 83 1015.0
20210802112035 59 0 0.0 1.0 0.00 0.00 0.00 81 1015.0
20210802111627 59 0 0.0 2.0 0.00 0.00 0.00 84 1015.0
20210802111035 59 0 0.0 3.0 0.00 0.00 0.00 84 1015.0
20210802110537 59 0 0.0 3.0 0.00 0.00 0.00 83 1015.0
20210802110137 59 346 0.0 2.0 0.00 0.00 0.00 82 1015.0
20210802105544 59 19 0.0 2.0 0.00 0.00 0.00 79 1015.0
20210802105037 60 15 0.0 2.0 0.00 0.00 0.00 83 1015.0